Location: Dehesa de la Cepeda
(40.6574°N, 4.3013°W)
Time: 09:14:08
(UTC+00:00)

Transit 2A Rocket - Pass Details

Date: 04 August 2021
Orbit: 586 x 917 km, 66.7° (Epoch: 24 September)

Event Time Altitude Azimuth Distance (km) Brightness Sun altitude
Rises 00:29:50 0° 307° (NW) 3,384 8.8 -32.1°
Enters shadow 00:33:52 10° 278° (W) 2,544 7.7 -32.1°
Reaches altitude 10° 00:34:08 10° 276° (W) 2,513 - -32.1°
Maximum altitude 00:35:59 12° 257° (WSW) 2,426 - -32.0°
Drops below altitude 10° 00:37:50 10° 239° (WSW) 2,555 - -32.0°
Sets 00:42:21 0° 208° (SSW) 3,526 - -32.0°
